Location: Cheyres
(46.8153°N, 6.7877°E)
Time: 04:17:03
(UTC+00:00)

Cosmos 923 Rocket - Pass Details

Date: 11 May 2021
Orbit: 758 x 786 km, 74.0° (Epoch: 18 June)

Event Time Altitude Azimuth Distance (km) Brightness Sun altitude
Rises 21:00:15 0° 341° (NNW) 3,245 8.7 -16.9°
Reaches altitude 10° 21:02:41 10° 346° (NNW) 2,318 7.6 -17.2°
Maximum altitude 21:07:50 54° 64° (ENE) 936 4.3 -17.7°
Enters shadow 21:10:11 31° 126° (SE) 1,347 4.7 -17.9°
